This is the latest recevied weather packets stored in our database for station/object W3BRL. If no packets are shown the sender has not sent any weather packets the latest 10 day(s).
| Time | Temp. | Humidity | Pressure | Rain* | Wind** | Luminosity | Snow |
|---|---|---|---|---|---|---|---|
| 1777417409 | 19.44° C | 75% | 1010.2 hPa | 0 mm | - | 49 W/m² | - |
| 1777417106 | 19.44° C | 75% | 1010.3 hPa | 0 mm | - | 45 W/m² | - |
| 1777416801 | 19.44° C | 74% | 1010.5 hPa | 0 mm | - | 77 W/m² | - |
| 1777416497 | 19.44° C | 74% | 1010.5 hPa | 0 mm | - | 108 W/m² | - |
| 1777416194 | 19.44° C | 75% | 1010.7 hPa | 0 mm | - | 134 W/m² | - |
| 1777415888 | 19.44° C | 75% | 1010.9 hPa | 0 mm | - | 116 W/m² | - |
| 1777415584 | 19.44° C | 74% | 1011 hPa | 0 mm | - | 106 W/m² | - |
| 1777415279 | 19.44° C | 74% | 1011.1 hPa | 0 mm | - | 122 W/m² | - |
| 1777414975 | 19.44° C | 74% | 1010.9 hPa | 0 mm | - | 203 W/m² | - |
| 1777414674 | 19.44° C | 75% | 1011.2 hPa | 0 mm | - | 253 W/m² | - |
| 1777414370 | 19.44° C | 74% | 1011 hPa | 0 mm | - | 119 W/m² | - |
| 1777414065 | 19.44° C | 74% | 1010.9 hPa | 0 mm | - | 240 W/m² | - |
| 1777413764 | 19.44° C | 75% | 1011 hPa | 0 mm | - | 122 W/m² | - |
| 1777413460 | 18.89° C | 76% | 1010.9 hPa | 0 mm | - | 316 W/m² | - |
| 1777413157 | 18.89° C | 76% | 1011 hPa | 0 mm | - | 159 W/m² | - |
| 1777412852 | 18.89° C | 75% | 1011 hPa | 0 mm | - | 197 W/m² | - |
| 1777412551 | 18.89° C | 76% | 1010.9 hPa | 0 mm | - | 176 W/m² | - |
| 1777412249 | 18.89° C | 76% | 1010.9 hPa | 0 mm | - | 257 W/m² | - |
| 1777411945 | 18.89° C | 75% | 1010.8 hPa | 0 mm | - | 112 W/m² | - |
| 1777411645 | 18.89° C | 74% | 1011 hPa | 0 mm | - | 173 W/m² | - |
| 1777411345 | 19.44° C | 73% | 1011.2 hPa | 0 mm | - | 225 W/m² | - |
| 1777411044 | 18.89° C | 74% | 1011.1 hPa | 0 mm | - | 264 W/m² | - |
| 1777410739 | 18.89° C | 74% | 1011.2 hPa | 0 mm | - | 579 W/m² | - |
| 1777410433 | 18.89° C | 75% | 1011.2 hPa | 0 mm | - | 250 W/m² | - |
| 1777410133 | 18.33° C | 76% | 1011.3 hPa | 0 mm | - | 112 W/m² | - |
* Rain latest hour (hover to see other rain measurements)
** Current wind speed in m/s (hover to see current wind gust speed)